• In Hungary
  • List of Countries
  • For 7 days
  • Water Temperature
  • Satellite Maps
  • Weather Map
  • News
  • Weather Widgets
  • user-avatar
    Login

    Hourly Weather Horodysche

    Today, 13 December, Wednesday

    Time Temperature Precipitation Wind Pressure Humidity
    00:00 +7°C° 0.5 mm 3 mps 737 mmHg 87%
    01:00 +7°C° 0.5 mm 3 mps 737 mmHg 87%
    02:00 +5°C° 0.5 mm 3 mps 738 mmHg 87%
    03:00 +5°C° 0.7 mm 3 mps 738 mmHg 85%
    04:00 +4°C° 0.7 mm 3 mps 738 mmHg 84%
    05:00 +3°C° 0.7 mm 3 mps 739 mmHg 82%
    06:00 +3°C° 0.8 mm 3 mps 739 mmHg 84%
    07:00 +2°C° 0.8 mm 3 mps 739 mmHg 86%
    08:00 +2°C° 0.8 mm 3 mps 740 mmHg 88%
    09:00 +3°C° 0.6 mm 2 mps 740 mmHg 89%
    10:00 +2°C° 0.6 mm 2 mps 740 mmHg 91%
    11:00 +2°C° 0.6 mm 2 mps 740 mmHg 92%
    12:00 +3°C° 0.5 mm 1 mps 740 mmHg 93%
    13:00 +3°C° 0.5 mm 1 mps 740 mmHg 93%
    14:00 +3°C° 0.5 mm 1 mps 740 mmHg 94%
    15:00 +3°C° 0.2 mm 1 mps 740 mmHg 94%
    16:00 +3°C° 0.2 mm 1 mps 739 mmHg 95%
    17:00 +2°C° 0.2 mm 1 mps 739 mmHg 96%
    18:00 +2°C° 0 mm 1 mps 739 mmHg 96%
    19:00 +2°C° 0 mm 1 mps 739 mmHg 96%
    20:00 +2°C° 0 mm 1 mps 738 mmHg 96%
    21:00 +2°C° 0 mm 1 mps 738 mmHg 95%
    22:00 +1°C° 0 mm 2 mps 738 mmHg 95%
    23:00 +1°C° 0 mm 2 mps 737 mmHg 95%

    Tomorrow, 14 December, Thursday

    Time Temperature Precipitation Wind Pressure Humidity
    00:00 +1°C° 0 mm 2 mps 737 mmHg 95%
    01:00 -1°C° 0 mm 2 mps 736 mmHg 95%
    02:00 -1°C° 0 mm 2 mps 736 mmHg 95%
    03:00 -1°C° 0 mm 2 mps 735 mmHg 94%
    04:00 -1°C° 0 mm 3 mps 735 mmHg 93%
    05:00 -1°C° 0 mm 3 mps 734 mmHg 92%
    06:00 -1°C° 0 mm 3 mps 734 mmHg 91%
    07:00 -1°C° 0 mm 3 mps 733 mmHg 89%
    08:00 -2°C° 0 mm 4 mps 733 mmHg 87%
    09:00 -1°C° 0 mm 4 mps 732 mmHg 85%
    10:00 0°C° 0 mm 5 mps 732 mmHg 82%
    11:00 +1°C° 0 mm 5 mps 732 mmHg 80%
    12:00 +2°C° 0.1 mm 5 mps 731 mmHg 79%
    13:00 +2°C° 0.1 mm 5 mps 731 mmHg 79%
    14:00 +3°C° 0.1 mm 5 mps 731 mmHg 78%
    15:00 +2°C° 0.1 mm 5 mps 731 mmHg 79%
    16:00 +2°C° 0.1 mm 5 mps 731 mmHg 80%
    17:00 +2°C° 0.1 mm 5 mps 731 mmHg 80%
    18:00 +2°C° 0 mm 5 mps 732 mmHg 79%
    19:00 +2°C° 0 mm 5 mps 732 mmHg 78%
    20:00 +2°C° 0 mm 5 mps 732 mmHg 77%
    21:00 +2°C° 0 mm 5 mps 732 mmHg 77%
    22:00 +2°C° 0 mm 5 mps 733 mmHg 77%
    23:00 +2°C° 0 mm 5 mps 733 mmHg 78%

    Day after tomorrow, 15 December, Friday

    Time Temperature Precipitation Wind Pressure Humidity
    00:00 +1°C° 0 mm 4 mps 733 mmHg 78%
    01:00 +1°C° 0 mm 4 mps 732 mmHg 79%
    02:00 +1°C° 0 mm 3 mps 732 mmHg 80%
    03:00 +1°C° 0.1 mm 3 mps 731 mmHg 81%
    04:00 +2°C° 0.1 mm 3 mps 731 mmHg 81%
    05:00 +2°C° 0.1 mm 3 mps 730 mmHg 82%
    06:00 +1°C° 0 mm 4 mps 730 mmHg 81%
    07:00 +1°C° 0 mm 4 mps 729 mmHg 80%
    08:00 +1°C° 0 mm 5 mps 728 mmHg 79%
    09:00 +2°C° 0 mm 5 mps 728 mmHg 79%
    10:00 +3°C° 0 mm 5 mps 727 mmHg 80%
    11:00 +5°C° 0 mm 5 mps 727 mmHg 80%
    12:00 +5°C° 0.2 mm 5 mps 727 mmHg 81%
    13:00 +6°C° 0.2 mm 4 mps 726 mmHg 83%
    14:00 +6°C° 0.2 mm 4 mps 726 mmHg 85%
    15:00 +6°C° 1.3 mm 4 mps 726 mmHg 86%
    16:00 +6°C° 1.3 mm 4 mps 726 mmHg 87%
    17:00 +6°C° 1.3 mm 4 mps 726 mmHg 88%
    18:00 +5°C° 0.5 mm 4 mps 727 mmHg 86%
    19:00 +4°C° 0.5 mm 4 mps 728 mmHg 84%
    20:00 +4°C° 0.5 mm 4 mps 728 mmHg 82%
    21:00 +3°C° 0.1 mm 4 mps 729 mmHg 80%
    22:00 +3°C° 0.1 mm 4 mps 730 mmHg 78%
    23:00 +2°C° 0.1 mm 3 mps 730 mmHg 76%

    16 December, Saturday

    Time Temperature Precipitation Wind Pressure Humidity
    00:00 +2°C° 0.5 mm 3 mps 730 mmHg 78%
    01:00 +3°C° 0.5 mm 2 mps 731 mmHg 80%
    02:00 +3°C° 0.5 mm 1 mps 731 mmHg 82%
    03:00 +3°C° 0.7 mm 1 mps 731 mmHg 84%
    04:00 +3°C° 0.7 mm 1 mps 731 mmHg 86%
    05:00 +3°C° 0.7 mm 1 mps 731 mmHg 88%
    06:00 +2°C° 0.5 mm 1 mps 731 mmHg 89%
    07:00 +1°C° 0.5 mm 2 mps 731 mmHg 91%
    08:00 +1°C° 0.5 mm 2 mps 731 mmHg 93%
    09:00 +1°C° 0.4 mm 2 mps 732 mmHg 93%
    10:00 +1°C° 0.4 mm 2 mps 732 mmHg 94%
    11:00 +1°C° 0.4 mm 2 mps 732 mmHg 94%
    12:00 +1°C° 0.2 mm 2 mps 732 mmHg 94%
    13:00 +2°C° 0.2 mm 1 mps 733 mmHg 94%
    14:00 +3°C° 0.2 mm 1 mps 733 mmHg 94%
    15:00 +2°C° 0 mm 1 mps 733 mmHg 94%
    16:00 +2°C° 0 mm 1 mps 734 mmHg 93%
    17:00 +1°C° 0 mm 1 mps 734 mmHg 93%
    18:00 +1°C° 0 mm 1 mps 735 mmHg 93%
    19:00 +1°C° 0 mm 1 mps 735 mmHg 93%
    20:00 0°C° 0 mm 1 mps 736 mmHg 92%
    21:00 0°C° 0 mm 1 mps 736 mmHg 92%
    22:00 0°C° 0 mm 1 mps 736 mmHg 92%
    23:00 0°C° 0 mm 1 mps 737 mmHg 91%

    17 December, Sunday

    Time Temperature Precipitation Wind Pressure Humidity
    00:00 0°C° 0 mm 1 mps 737 mmHg 91%
    01:00 0°C° 0 mm 1 mps 737 mmHg 91%
    02:00 0°C° 0 mm 1 mps 737 mmHg 90%
    03:00 0°C° 0 mm 1 mps 737 mmHg 91%
    04:00 0°C° 0 mm 1 mps 737 mmHg 92%
    05:00 0°C° 0 mm 1 mps 737 mmHg 92%
    06:00 0°C° 0 mm 1 mps 738 mmHg 92%
    07:00 +1°C° 0 mm 1 mps 738 mmHg 93%
    08:00 +1°C° 0 mm 1 mps 738 mmHg 93%
    09:00 -1°C° 0.1 mm 2 mps 738 mmHg 92%
    10:00 -1°C° 0.1 mm 2 mps 739 mmHg 91%
    11:00 -1°C° 0.1 mm 2 mps 739 mmHg 90%
    12:00 0°C° 0.2 mm 3 mps 739 mmHg 89%
    13:00 0°C° 0.2 mm 3 mps 739 mmHg 88%
    14:00 0°C° 0.2 mm 3 mps 739 mmHg 87%
    15:00 -1°C° 0.1 mm 3 mps 739 mmHg 88%
    16:00 -1°C° 0.1 mm 3 mps 740 mmHg 89%
    17:00 -1°C° 0.1 mm 3 mps 740 mmHg 89%
    18:00 -1°C° 0.1 mm 3 mps 741 mmHg 90%
    19:00 -2°C° 0.1 mm 3 mps 741 mmHg 90%
    20:00 -2°C° 0.1 mm 3 mps 741 mmHg 91%
    21:00 -2°C° 0.1 mm 3 mps 742 mmHg 91%
    22:00 -2°C° 0.1 mm 3 mps 742 mmHg 92%
    23:00 -2°C° 0.1 mm 3 mps 742 mmHg 92%

    18 December, Monday

    Time Temperature Precipitation Wind Pressure Humidity
    00:00 -2°C° 0 mm 3 mps 742 mmHg 92%
    01:00 -2°C° 0 mm 3 mps 743 mmHg 93%
    02:00 -4°C° 0 mm 3 mps 743 mmHg 93%
    03:00 -4°C° 0 mm 3 mps 743 mmHg 93%
    04:00 -4°C° 0 mm 3 mps 743 mmHg 93%
    05:00 -4°C° 0 mm 3 mps 743 mmHg 93%
    06:00 -4°C° 0 mm 3 mps 744 mmHg 93%
    07:00 -4°C° 0 mm 2 mps 744 mmHg 93%
    08:00 -4°C° 0 mm 2 mps 744 mmHg 93%
    09:00 -3°C° 0 mm 2 mps 745 mmHg 91%
    10:00 -3°C° 0 mm 2 mps 745 mmHg 89%
    11:00 -2°C° 0 mm 2 mps 746 mmHg 86%
    12:00 -2°C° 0 mm 2 mps 746 mmHg 84%
    13:00 -2°C° 0 mm 2 mps 745 mmHg 82%
    14:00 -1°C° 0 mm 2 mps 745 mmHg 80%
    15:00 -2°C° 0 mm 2 mps 745 mmHg 82%
    16:00 -3°C° 0 mm 2 mps 746 mmHg 84%
    17:00 -1°C° 0 mm 1 mps 746 mmHg 86%
    18:00 -2°C° 0 mm 1 mps 746 mmHg 86%
    19:00 -2°C° 0 mm 1 mps 746 mmHg 86%
    20:00 -2°C° 0 mm 1 mps 746 mmHg 87%
    21:00 -2°C° 0 mm 1 mps 747 mmHg 87%
    22:00 -2°C° 0 mm 1 mps 747 mmHg 87%
    23:00 -3°C° 0 mm 1 mps 747 mmHg 88%
    Show more